Location: *
(39.6167°S, 171.5333°W)
Time: 19:08:11
(UTC+00:00)

Cosmos 407 Rocket - Pass Details

Date: 13 May 2021
Orbit: 743 x 787 km, 74.0° (Epoch: 20 June)

Event Time Altitude Azimuth Distance (km) Brightness Sun altitude
Exits shadow 16:09:47 45° 191° (S) 1,055 4.0 -25.5°
Drops below altitude 10° 16:13:35 10° 168° (SSE) 2,326 6.1 -24.8°
Sets 16:15:59 0° 164° (SSE) 3,252 6.9 -24.3°
